World > North America > United States > Texas > Millsap   City of Millsap, Texas

Millsap, TX Hourly Weather Updates

Feedback E-mail the Weather

Quick Clicks

Millsap, TX Weather Maps

°F °C°F °C
Millsap Weather Map
UTC Time: 6/18/2024, 13:08
Your Time:

Millsap, TX Regional Weather

Expires:202406181400;;232939
ASUS44 KFWD 181303
RWRTX 
NORTH TEXAS HOURLY WEATHER ROUNDUP
NATIONAL WEATHER SERVICE FORT WORTH TX
800 AM CDT TUE JUN 18 2024

NOTE: "FAIR" INDICATES FEW OR NO CLOUDS BELOW 12,000 FEET WITH NO
SIGNIFICANT WEATHER AND/OR OBSTRUCTIONS TO VISIBILITY.


TXZ091>094-102>105-117-120-121-131>134-181400-
NORTH CENTRAL TEXAS
  
CITY           SKY/WX    TMP DP  RH WIND       PRES   REMARKS
SHRMAN/DENISON PTSUNNY   75  72  88 SE10G20   29.90R                  
GAINESVILLE    CLOUDY    76  70  81 S15G21    29.90R                  
BOWIE          CLOUDY    75  69  81 S12G17    29.87R                  
DECATUR        CLOUDY    76  69  78 S8        29.89R                  
DENTON         CLOUDY    77  71  82 SE10      29.88R                  
MCKINNEY       CLOUDY    77  72  84 SE10      29.89R                  
BONHAM         CLOUDY    77  74  88 SE13      29.91R                  
GREENVILLE     PTSUNNY   76  74  93 SE10      29.91R                  
ROCKWALL       CLOUDY    76  75  98 SE13      29.89R                  
TERRELL        FAIR      77  71  82 SE12      29.89R                  
WAXAHACHIE     PTSUNNY   76  72  87 SE7       29.89R                  
CLEBURNE       CLOUDY    75  73  94 SE12      29.89R                  
GRANBURY       CLOUDY    76  71  84 SE10      29.87R                  
$$


SKY/WX - Weather  TMP - Temperature  DP - Dew Point  RH - Humidity
WIND - Wind Direction/Speed PRES - Barometric Pressure VSB - Visibility
WCI - Wind Chill Index E13G22 Wind - East Wind 13 mph/Gusts of 22 mph

Trending Headlines

Trending Entertainment Headlines

Millsap Radar Loop

Use the map search tool if you want to place a location marker on the radar map...

Millsap Quick Facts

National Two Day Weather Forecast


E-mail the Millsap Weather Forecast

Voice your opinion or tell us about page issues...